Flag for Netherlands Weather past 2 weeks in Almere, Netherlands

Now
50 °F

Passing clouds.


Feels Like: 43 °F
Forecast: 42 / 50 °F
Wind: 25 mph from Southwest

Location: Amsterdam Schiphol Airport

Current Time: Mar 29, 2015 at 9:52:59 AM

Latest Report: Mar 29, 2015 at 8:55 AM


Visibility: N/A

Pressure: 29.56 "Hg

Humidity: 82%

Dew point: 45 °F

Location of AlmereLocation

Historic Weather in Almere — Graph

°F

Almere temperature yesterday

Maximum temperature yesterday: 52 °F (at 4:25 PM)
Minimum temperature yesterday: 34 °F (at 12:25 AM)
Average temperature yesterday: 44 °F

Past Weeks' High & Low Weather Summary

 TemperatureHumidityPressure
High59 °F (Mar 17, 1:25 PM)100% (Mar 17, 4:55 AM)30.42 "Hg (Mar 17, 4:55 AM)
Low28 °F (Mar 23, 6:55 AM)48% (Mar 17, 1:55 PM)29.56 "Hg (Mar 29, 7:55 AM)
Average43 °F84%30.10 "Hg
* Reported Mar 14 7:25 AM — Mar 29 8:25 AM, Almere, Weather by CustomWeather, © 2015

Note: Actual official high and low records may vary slightly from our data, if they occured in-between our weather recording intervals... More about our weather records

Advertising

Almere weather history for previous 24 hours

 ConditionsComfort  
Time TempWeatherWind HumidityBarometerVisibility
8:25 AM
Sun, Mar 29
48 °FScattered clouds.28 mph87%29.56 "HgN/A
7:55 AM48 °FPassing clouds.25 mph87%29.56 "HgN/A
7:25 AM48 °FPassing clouds.25 mph87%29.59 "HgN/A
6:55 AM48 °FPassing clouds.23 mph87%29.59 "HgN/A
6:25 AM48 °FPassing clouds.24 mph87%29.59 "HgN/A
5:55 AM48 °FPassing clouds.23 mph87%29.59 "HgN/A
5:25 AM48 °FPartly cloudy.24 mph87%29.62 "HgN/A
4:55 AM48 °FPartly cloudy.24 mph87%29.62 "HgN/A
4:25 AM48 °FPassing clouds.23 mph87%29.62 "HgN/A
3:55 AM48 °FPassing clouds.22 mph94%29.62 "HgN/A
3:25 AM50 °FPassing clouds.24 mph88%29.62 "HgN/A
1:55 AM50 °FPartly cloudy.22 mph88%29.62 "HgN/A
1:25 AM48 °FPassing clouds.24 mph94%29.62 "HgN/A
12:55 AM50 °FPassing clouds.25 mph88%29.65 "HgN/A
12:25 AM50 °FPartly cloudy.24 mph94%29.65 "HgN/A
11:55 PM
Sat, Mar 28
50 °FPartly cloudy.20 mph94%29.65 "HgN/A
11:25 PM50 °FPartly cloudy.21 mph94%29.65 "HgN/A
10:55 PM50 °FPassing clouds.26 mph94%29.68 "HgN/A
10:25 PM50 °FPartly cloudy.26 mph94%29.68 "HgN/A
9:55 PM50 °FLow clouds.23 mph94%29.71 "HgN/A
9:25 PM50 °FMostly cloudy.25 mph94%29.71 "HgN/A
8:55 PM50 °FPassing clouds.23 mph94%29.71 "HgN/A
8:25 PM50 °FPartly cloudy.21 mph94%29.71 "HgN/A
7:55 PM50 °FPartly cloudy.24 mph94%29.74 "HgN/A
7:25 PM50 °FPartly cloudy.26 mph94%29.74 "HgN/A
6:55 PM50 °FLight rain. Broken clouds.25 mph94%29.74 "HgN/A
6:25 PM50 °FMore clouds than sun.25 mph94%29.74 "HgN/A
5:55 PM50 °FDrizzle. Low clouds.26 mph94%29.74 "HgN/A
5:25 PM50 °FMore clouds than sun.29 mph88%29.77 "HgN/A
4:55 PM52 °FMostly cloudy.26 mph88%29.77 "HgN/A
4:25 PM52 °FMostly cloudy.22 mph88%29.77 "Hg6 mi
3:55 PM50 °FMore clouds than sun.18 mph100%29.80 "Hg6 mi
3:25 PM48 °FFog.17 mph100%29.83 "Hg2 mi
2:55 PM48 °FDrizzle. Fog.18 mph100%29.83 "Hg1 mi
2:25 PM48 °FDrizzle. Mostly cloudy.20 mph94%29.86 "Hg3 mi
1:55 PM46 °FLow clouds.17 mph100%29.86 "Hg4 mi
1:25 PM46 °FDrizzle. Mostly cloudy.20 mph93%29.89 "Hg6 mi
12:55 PM46 °FDrizzle. Mostly cloudy.15 mph93%29.89 "Hg2 mi
12:25 PM46 °FDrizzle. Mostly cloudy.16 mph93%29.92 "Hg3 mi
11:55 AM46 °FDrizzle. More clouds than sun.18 mph93%29.92 "Hg4 mi
11:25 AM46 °FDrizzle. Overcast.16 mph87%29.95 "HgN/A
10:55 AM46 °FDrizzle. Broken clouds.16 mph87%29.95 "HgN/A
10:25 AM45 °FDrizzle. Broken clouds.15 mph87%29.98 "HgN/A
9:55 AM45 °FPartly sunny.15 mph76%30.01 "HgN/A
9:25 AM45 °FPartly sunny.14 mph76%30.01 "HgN/A
Weather by CustomWeather, © 2015

See weather overviewHow to use our weather pages